Notices

What's New in latest Release from April 7th, 2021:

- Updated Glossary, including Speed of Maximum Gust, and Total Hourly Precipitation

- Updated national and regional climate services offices contacts and prices information

- Addition of station inventory lists for 1981-2010, 1971-2000, and 1961-1990 Normals.

If you haven't already, please take our survey and provide feedback about our website: https://eccc.sondage-survey.ca/f/LanguageSelection.aspx?s=442ca660-fcf1-47c0-95a9-59707d6fd709

Hourly Data Report for January 26, 2021

CARBERRY CS
MANITOBA
Current Station Operator: ECCC - MSC

49°54'20.900" N
99°21'26.800" W
383.50 m
5010547
71170
WZE

Download Data

Hourly Data (January 2021)
Hourly Data Report for January 26, 2021
TIME
LST
Temp Definition
°C
Dew Point Definition
°C
Rel Hum Definition
%
Precip. Amount Definition
mm

Wind Dir Definition
10's deg

Wind Spd Definition
km/h
Visibility Definition
km
Stn Press Definition
kPa
Hmdx Definition


Wind Chill Definition


Weather Definition


00:00 -28.7 -31.1 79 0.0 36 6   98.09   -35 LegendNANA
01:00 -32.1 -35.3 73 0.3 36 2   98.08   -34 LegendNANA
02:00 -33.2 -36.5 72 0.0 30 7   98.06   -41 LegendNANA
03:00 -33.6 -36.9 72 0.0 30 5   98.07   -40 LegendNANA
04:00 -34.2 -37.6 71 0.0 31 6   98.02   -41 LegendNANA
05:00 -34.3 -37.7 71 0.0 31 5   98.03   -41 LegendNANA
06:00 -34.7 -38.2 70 0.0 30 4   98.05   -40 LegendNANA
07:00 -34.7 -38.1 71 0.0 30 2   98.08   -37 LegendNANA
08:00 -35.1 -38.6 70 0.0 30 3   98.14   -39 LegendNANA
09:00 -34.7 -38.5 68 0.0 30 2   98.18   -37 LegendNANA
10:00 -31.9 -35.7 69 0.0 30 2   98.20   -34 LegendNANA
11:00 -28.3 -32.8 66 0.0 30 1   98.23   -29 LegendNANA
12:00 -26.0 -30.4 66 0.0 34 5   98.23   -31 LegendNANA
13:00 -25.2 -29.8 65 0.0 31 6   98.21   -31 LegendNANA
14:00 -23.6 -29.4 59 0.0 28 4   98.16   -27 LegendNANA
15:00 -24.1 -29.6 60 0.0 36 3   98.14   -27 LegendNANA
16:00 -24.1 -29.2 63 0.0 1 4   98.19   -28 LegendNANA
17:00 -24.5 -29.0 66 0.0 35 5   98.22   -29 LegendNANA
18:00 -25.6 -28.5 77 0.0   0   98.26     LegendNANA
19:00 -29.4 -32.6 74 0.0   0   98.28     LegendNANA
20:00 -28.1 -30.5 80 0.0 8 2   98.31   -30 LegendNANA
21:00 -30.8 -34.0 74 0.0 8 3   98.33   -34 LegendNANA
22:00 -31.1 -34.4 73 0.0 0 1   98.35   -32 LegendNANA
23:00 -30.7 -33.9 74 0.0 15 1   98.39   -32 LegendNANA

Notes on Data Quality.

Legend

  • E = Estimated
  • M = Missing
  • NA = Not Available*
  • [empty] = Indicates an unobserved value
Date modified: